This is the latest recevied weather packets stored in our database for station/object JR5YHL-13. If no packets are shown the sender has not sent any weather packets the latest 10 day(s).
| Time | Temp. | Humidity | Pressure | Rain* | Wind** | Luminosity | Snow |
|---|---|---|---|---|---|---|---|
| 1777882709 | 19.44° C | 31% | 1010.8 hPa | 0 mm | - | - | - |
| 1777882112 | 19.44° C | 30% | 1010.8 hPa | 0 mm | - | - | - |
| 1777881514 | 20.56° C | 33% | 1010.8 hPa | 0 mm | - | - | - |
| 1777880916 | 20.56° C | 33% | 1010.5 hPa | 0 mm | - | - | - |
| 1777880318 | 20.56° C | 31% | 1010.3 hPa | 0 mm | - | - | - |
| 1777879720 | 20° C | 31% | 1010.2 hPa | 0 mm | - | - | - |
| 1777879123 | 20.56° C | 31% | 1009.9 hPa | 0 mm | - | - | - |
| 1777878525 | 20.56° C | 30% | 1009.9 hPa | 0 mm | - | - | - |
| 1777877927 | 20.56° C | 30% | 1009.8 hPa | 0 mm | - | - | - |
| 1777877330 | 20.56° C | 30% | 1009.6 hPa | 0 mm | - | - | - |
| 1777876732 | 20.56° C | 30% | 1009.4 hPa | 0 mm | - | - | - |
| 1777876134 | 20.56° C | 30% | 1009.3 hPa | 0 mm | - | - | - |
| 1777875536 | 21.11° C | 30% | 1009.5 hPa | 0 mm | - | - | - |
| 1777874938 | 21.11° C | 30% | 1009.1 hPa | 0 mm | - | - | - |
| 1777874341 | 21.11° C | 29% | 1008.9 hPa | 0 mm | - | - | - |
| 1777873743 | 21.11° C | 29% | 1008.7 hPa | 0 mm | - | - | - |
| 1777873145 | 21.67° C | 28% | 1008.6 hPa | 0 mm | - | - | - |
| 1777872547 | 22.22° C | 25% | 1008.3 hPa | 0 mm | - | - | - |
| 1777871950 | 22.78° C | 24% | 1008.1 hPa | 0 mm | - | - | - |
| 1777871352 | 24.44° C | 24% | 1007.8 hPa | 0 mm | - | - | - |
| 1777870754 | 23.89° C | 25% | 1007.8 hPa | 0 mm | - | - | - |
| 1777870156 | 24.44° C | 25% | 1007.8 hPa | 0 mm | - | - | - |
| 1777869559 | 24.44° C | 25% | 1008 hPa | 0 mm | - | - | - |
| 1777868961 | 24.44° C | 26% | 1008.1 hPa | 0 mm | - | - | - |
| 1777868364 | 24.44° C | 25% | 1008 hPa | 0 mm | - | - | - |
* Rain latest hour (hover to see other rain measurements)
** Current wind speed in m/s (hover to see current wind gust speed)